| time (UTC) | temp C | wind direction | speed KPH | gust KPH | rain 1hr cm | rain 24hr cm | rain mn cm | humidity % | barometer mb |
| 20260502130632 | 6 | 7 | 3.2 | 3.2 | 0.00 | 0.00 | 0.43 | 99 | 1012.6 |
| 20260502130132 | 6 | 314 | 1.6 | 3.2 | 0.00 | 0.00 | 0.43 | 99 | 1012.8 |
| 20260502123630 | 5 | 135 | 8.0 | 9.7 | 0.00 | 0.00 | 0.43 | 99 | 1012.8 |
| 20260502123131 | 5 | 139 | 6.4 | 8.0 | 0.00 | 0.00 | 0.43 | 99 | 1013.0 |
| 20260502122630 | 5 | 297 | 3.2 | 4.8 | 0.00 | 0.00 | 0.43 | 99 | 1012.6 |
| 20260502122129 | 5 | 24 | 3.2 | 4.8 | 0.00 | 0.00 | 0.43 | 99 | 1012.6 |
| 20260502121628 | 5 | 339 | 1.6 | 1.6 | 0.00 | 0.00 | 0.43 | 99 | 1013.0 |
| 20260502121128 | 5 | 324 | 1.6 | 1.6 | 0.00 | 0.00 | 0.43 | 99 | 1012.6 |
| 20260502120629 | 5 | 319 | 1.6 | 1.6 | 0.00 | 0.00 | 0.43 | 99 | 1012.8 |
| 20260502120128 | 5 | 333 | 1.6 | 1.6 | 0.00 | 0.00 | 0.43 | 99 | 1012.6 |
| 20260502115627 | 5 | 296 | 3.2 | 3.2 | 0.00 | 0.00 | 0.43 | 99 | 1013.0 |
| 20260502115126 | 5 | 332 | 1.6 | 1.6 | 0.00 | 0.00 | 0.43 | 99 | 1012.6 |
| 20260502114127 | 5 | 332 | 1.6 | 3.2 | 0.00 | 0.00 | 0.43 | 99 | 1012.6 |
| 20260502113626 | 5 | 340 | 1.6 | 1.6 | 0.00 | 0.00 | 0.43 | 99 | 1012.6 |
| 20260502113125 | 5 | 0.0 | 0.0 | 0.00 | 0.00 | 0.43 | 99 | 1012.6 | |
| 20260502112624 | 5 | 16 | 3.2 | 3.2 | 0.00 | 0.00 | 0.43 | 99 | 1012.6 |
| 20260502112126 | 5 | 5 | 3.2 | 3.2 | 0.00 | 0.00 | 0.43 | 99 | 1012.6 |
| 20260502111226 | 5 | 318 | 1.6 | 1.6 | 0.00 | 0.00 | 0.43 | 99 | 1013.0 |
| 20260502110623 | 5 | 341 | 1.6 | 3.2 | 0.00 | 0.00 | 0.43 | 99 | 1012.6 |
| 20260502110124 | 5 | 345 | 1.6 | 1.6 | 0.00 | 0.00 | 0.43 | 99 | 1012.6 |
| 20260502105623 | 5 | 0.0 | 0.0 | 0.00 | 0.00 | 0.43 | 99 | 1012.6 | |
| 20260502105123 | 5 | 341 | 0.0 | 1.6 | 0.00 | 0.00 | 0.43 | 99 | 1012.3 |
| 20260502104624 | 5 | 0.0 | 0.0 | 0.00 | 0.00 | 0.43 | 99 | 1012.3 | |
| 20260502104123 | 5 | 0.0 | 0.0 | 0.00 | 0.00 | 0.43 | 99 | 1012.3 | |
| 20260502103622 | 5 | 0.0 | 0.0 | 0.00 | 0.00 | 0.43 | 99 | 1012.3 | |
| 20260502103121 | 4 | 331 | 0.0 | 1.6 | 0.00 | 0.00 | 0.43 | 99 | 1012.3 |
| 20260502102622 | 4 | 0.0 | 0.0 | 0.00 | 0.00 | 0.43 | 99 | 1012.3 | |
| 20260502102122 | 4 | 0.0 | 0.0 | 0.00 | 0.00 | 0.43 | 99 | 1012.3 | |
| 20260502101621 | 4 | 333 | 1.6 | 1.6 | 0.00 | 0.00 | 0.43 | 99 | 1012.3 |
| 20260502101122 | 4 | 0.0 | 0.0 | 0.00 | 0.00 | 0.43 | 99 | 1012.1 | |
| 20260502100619 | 4 | 331 | 0.0 | 1.6 | 0.00 | 0.00 | 0.43 | 99 | 1012.3 |
| 20260502100120 | 4 | 335 | 1.6 | 1.6 | 0.00 | 0.00 | 0.43 | 99 | 1012.3 |
| 20260502091116 | 4 | 0.0 | 0.0 | 0.00 | 0.00 | 0.43 | 99 | 1012.6 | |
| 20260502090646 | 4 | 334 | 1.6 | 1.6 | 0.00 | 0.00 | 0.43 | 99 | 1012.6 |
| 20260502090117 | 4 | 0.0 | 0.0 | 0.00 | 0.00 | 0.43 | 99 | 1012.6 | |
| 20260502071138 | 5 | 0.0 | 0.0 | 0.00 | 0.00 | 0.23 | 99 | 1012.6 | |
| 20260502070638 | 5 | 0.0 | 0.0 | 0.00 | 0.00 | 0.23 | 99 | 1013.0 | |
| 20260502070137 | 5 | 0.0 | 0.0 | 0.00 | 0.00 | 0.20 | 99 | 1012.6 | |
| 20260502065636 | 5 | 0.0 | 0.0 | 0.00 | 0.00 | 0.20 | 99 | 1013.0 | |
| 20260502065137 | 5 | 331 | 1.6 | 1.6 | 0.00 | 0.00 | 0.20 | 99 | 1013.0 |
| 20260502064637 | 5 | 338 | 0.0 | 1.6 | 0.00 | 0.00 | 0.20 | 99 | 1013.0 |
| 20260502063637 | 5 | 0.0 | 0.0 | 0.00 | 0.00 | 0.20 | 99 | 1013.0 | |
| 20260502063136 | 5 | 0.0 | 0.0 | 0.00 | 0.00 | 0.20 | 99 | 1013.0 | |
| 20260502062634 | 5 | 0.0 | 0.0 | 0.00 | 0.00 | 0.20 | 99 | 1013.0 | |
| 20260502062134 | 5 | 337 | 1.6 | 1.6 | 0.00 | 0.00 | 0.20 | 99 | 1013.3 |
| 20260502061635 | 5 | 329 | 0.0 | 1.6 | 0.00 | 0.00 | 0.20 | 99 | 1013.3 |
| 20260502061138 | 5 | 0.0 | 0.0 | 0.00 | 0.00 | 0.20 | 99 | 1013.3 | |
| 20260502060635 | 5 | 0.0 | 0.0 | 0.00 | 0.00 | 0.20 | 99 | 1013.3 | |
| 20260502060234 | 5 | 336 | 0.0 | 1.6 | 0.00 | 0.00 | 0.20 | 99 | 1013.3 |
| 20260502055633 | 5 | 326 | 1.6 | 1.6 | 0.00 | 0.00 | 0.20 | 99 | 1013.7 |
| 20260502055135 | 5 | 0.0 | 0.0 | 0.00 | 0.00 | 0.18 | 99 | 1013.7 | |
| 20260502054632 | 5 | 339 | 1.6 | 3.2 | 0.00 | 0.00 | 0.13 | 99 | 1014.0 |
| 20260502054131 | 5 | 326 | 1.6 | 1.6 | 0.00 | 0.00 | 0.10 | 99 | 1014.0 |
| 20260502053632 | 5 | 0.0 | 0.0 | 0.00 | 0.00 | 0.08 | 98 | 1013.7 | |
| 20260502053131 | 5 | 0.0 | 0.0 | 0.00 | 0.00 | 0.05 | 97 | 1013.7 | |
| 20260502052630 | 6 | 328 | 0.0 | 1.6 | 0.00 | 0.00 | 0.03 | 95 | 1013.5 |
| 20260502052130 | 6 | 331 | 0.0 | 1.6 | 0.00 | 0.00 | 0.03 | 93 | 1013.5 |
| 20260502051632 | 6 | 337 | 1.6 | 1.6 | 0.00 | 0.00 | 0.00 | 90 | 1013.3 |
| 20260502051130 | 6 | 333 | 1.6 | 1.6 | 0.00 | 0.00 | 0.00 | 86 | 1013.3 |
| 20260502050629 | 7 | 328 | 0.0 | 1.6 | 0.00 | 0.00 | 0.00 | 83 | 1013.3 |
| 20260502050129 | 7 | 334 | 1.6 | 3.2 | 0.00 | 0.00 | 0.00 | 80 | 1013.3 |
| 20260502045632 | 7 | 339 | 1.6 | 1.6 | 0.00 | 0.00 | 0.00 | 78 | 1013.3 |
| 20260502045129 | 7 | 338 | 1.6 | 1.6 | 0.00 | 0.00 | 0.00 | 73 | 1013.0 |
| 20260502044628 | 7 | 325 | 1.6 | 3.2 | 0.00 | 0.00 | 0.00 | 71 | 1013.3 |
| 20260502044231 | 7 | 335 | 1.6 | 3.2 | 0.00 | 0.00 | 0.00 | 75 | 1013.3 |
| 20260502043628 | 7 | 334 | 3.2 | 4.8 | 0.00 | 0.00 | 0.00 | 76 | 1013.0 |
| 20260502043128 | 7 | 332 | 3.2 | 3.2 | 0.00 | 0.00 | 0.00 | 81 | 1013.0 |
| 20260502042627 | 7 | 332 | 3.2 | 3.2 | 0.00 | 0.00 | 0.00 | 80 | 1013.0 |
| 20260502042126 | 7 | 322 | 3.2 | 3.2 | 0.00 | 0.00 | 0.00 | 80 | 1013.0 |
| 20260502041625 | 7 | 342 | 1.6 | 3.2 | 0.00 | 0.00 | 0.00 | 77 | 1013.0 |
| 20260502041126 | 7 | 327 | 3.2 | 3.2 | 0.00 | 0.00 | 0.00 | 77 | 1013.0 |
| 20260502040626 | 7 | 329 | 3.2 | 3.2 | 0.00 | 0.00 | 0.00 | 74 | 1013.0 |
| 20260502040125 | 7 | 328 | 3.2 | 3.2 | 0.00 | 0.00 | 0.00 | 76 | 1013.0 |
| 20260502035725 | 6 | 327 | 3.2 | 3.2 | 0.00 | 0.00 | 0.00 | 77 | 1013.0 |
| 20260502035227 | 6 | 330 | 3.2 | 3.2 | 0.00 | 0.00 | 0.00 | 75 | 1013.0 |
| 20260502034624 | 6 | 325 | 3.2 | 3.2 | 0.00 | 0.00 | 0.00 | 77 | 1013.0 |
| 20260502034125 | 7 | 327 | 3.2 | 3.2 | 0.00 | 0.00 | 0.00 | 75 | 1013.0 |
| 20260502033623 | 7 | 327 | 1.6 | 1.6 | 0.00 | 0.00 | 0.00 | 74 | 1013.0 |
| 20260502032623 | 7 | 0.0 | 0.0 | 0.00 | 0.00 | 0.00 | 71 | 1013.0 | |
| 20260502032123 | 7 | 334 | 1.6 | 1.6 | 0.00 | 0.00 | 0.00 | 73 | 1012.6 |
| 20260502031622 | 7 | 336 | 1.6 | 3.2 | 0.00 | 0.00 | 0.00 | 71 | 1012.6 |
| 20260502031123 | 7 | 334 | 1.6 | 3.2 | 0.00 | 0.00 | 0.00 | 71 | 1013.0 |
| 20260502030622 | 7 | 340 | 3.2 | 3.2 | 0.00 | 0.00 | 0.00 | 69 | 1012.6 |
| 20260502030121 | 7 | 331 | 1.6 | 3.2 | 0.00 | 0.00 | 0.00 | 72 | 1013.0 |
| 20260502025620 | 7 | 335 | 1.6 | 1.6 | 0.00 | 0.00 | 0.00 | 72 | 1012.8 |
| 20260502025123 | 7 | 337 | 1.6 | 1.6 | 0.00 | 0.00 | 0.00 | 71 | 1012.6 |
| 20260502024620 | 7 | 337 | 1.6 | 3.2 | 0.00 | 0.00 | 0.00 | 72 | 1012.6 |
| 20260502024119 | 7 | 340 | 1.6 | 3.2 | 0.00 | 0.00 | 0.00 | 70 | 1012.6 |
| 20260502023621 | 7 | 330 | 1.6 | 1.6 | 0.00 | 0.00 | 0.00 | 70 | 1013.0 |
| 20260502022619 | 7 | 336 | 1.6 | 1.6 | 0.00 | 0.00 | 0.00 | 69 | 1012.8 |
| 20260502022118 | 7 | 339 | 1.6 | 3.2 | 0.00 | 0.00 | 0.00 | 69 | 1013.0 |
| 20260502021621 | 7 | 336 | 1.6 | 1.6 | 0.00 | 0.00 | 0.00 | 68 | 1013.0 |
| 20260502021118 | 7 | 333 | 1.6 | 1.6 | 0.00 | 0.00 | 0.00 | 66 | 1013.0 |
| 20260502020617 | 7 | 327 | 1.6 | 1.6 | 0.00 | 0.00 | 0.00 | 65 | 1012.8 |
| 20260502020117 | 7 | 339 | 0.0 | 1.6 | 0.00 | 0.00 | 0.00 | 63 | 1013.0 |
| 20260502015616 | 7 | 318 | 3.2 | 4.8 | 0.00 | 0.00 | 0.00 | 64 | 1013.0 |
| 20260502015117 | 7 | 336 | 1.6 | 1.6 | 0.00 | 0.00 | 0.00 | 64 | 1013.0 |
| 20260502014616 | 7 | 331 | 1.6 | 1.6 | 0.00 | 0.00 | 0.00 | 65 | 1013.0 |
| 20260502014116 | 7 | 325 | 3.2 | 3.2 | 0.00 | 0.00 | 0.00 | 67 | 1013.0 |
| 20260502013645 | 7 | 334 | 3.2 | 3.2 | 0.00 | 0.00 | 0.00 | 69 | 1013.0 |
| 20260502013150 | 6 | 325 | 1.6 | 1.6 | 0.00 | 0.00 | 0.00 | 70 | 1013.0 |
| 20260502012648 | 6 | 318 | 3.2 | 3.2 | 0.00 | 0.00 | 0.00 | 70 | 1013.0 |
| 20260502012144 | 7 | 319 | 3.2 | 3.2 | 0.00 | 0.00 | 0.00 | 69 | 1013.1 |
| 20260502011644 | 7 | 334 | 1.6 | 3.2 | 0.00 | 0.00 | 0.00 | 70 | 1013.0 |
| 20260502011145 | 7 | 327 | 1.6 | 1.6 | 0.00 | 0.00 | 0.00 | 68 | 1013.0 |
| 20260502010644 | 7 | 328 | 1.6 | 1.6 | 0.00 | 0.00 | 0.00 | 67 | 1013.0 |
| 20260502010143 | 7 | 328 | 1.6 | 1.6 | 0.00 | 0.00 | 0.00 | 66 | 1013.0 |
| 20260502005642 | 7 | 331 | 1.6 | 1.6 | 0.00 | 0.00 | 0.00 | 65 | 1012.6 |
| 20260502005142 | 7 | 330 | 1.6 | 1.6 | 0.00 | 0.00 | 0.00 | 65 | 1012.6 |
| 20260502004643 | 7 | 333 | 1.6 | 3.2 | 0.00 | 0.00 | 0.00 | 63 | 1012.6 |
| 20260502004142 | 7 | 330 | 0.0 | 1.6 | 0.00 | 0.00 | 0.00 | 64 | 1012.6 |
| 20260502003641 | 7 | 326 | 1.6 | 1.6 | 0.00 | 0.00 | 0.00 | 66 | 1012.6 |
| 20260502003140 | 8 | 325 | 1.6 | 3.2 | 0.00 | 0.00 | 0.00 | 64 | 1012.6 |
| 20260502002641 | 7 | 330 | 1.6 | 3.2 | 0.00 | 0.00 | 0.00 | 62 | 1012.6 |
| 20260502002140 | 7 | 325 | 1.6 | 3.2 | 0.00 | 0.00 | 0.00 | 66 | 1012.3 |
| 20260502001639 | 7 | 332 | 3.2 | 3.2 | 0.00 | 0.00 | 0.00 | 71 | 1012.3 |
| 20260502001139 | 7 | 328 | 3.2 | 3.2 | 0.00 | 0.00 | 0.00 | 71 | 1012.3 |
| 20260502000638 | 7 | 318 | 3.2 | 3.2 | 0.00 | 0.00 | 0.00 | 72 | 1012.3 |
| 20260502000139 | 7 | 327 | 3.2 | 3.2 | 0.00 | 0.00 | 0.00 | 71 | 1012.3 |
| 20260501235638 | 8 | 329 | 1.6 | 3.2 | 0.00 | 0.00 | 0.00 | 72 | 1012.1 |
| 20260501235137 | 8 | 329 | 3.2 | 3.2 | 0.00 | 0.00 | 0.00 | 69 | 1012.3 |
| 20260501234639 | 8 | 333 | 3.2 | 3.2 | 0.00 | 0.00 | 0.00 | 70 | 1012.1 |
| 20260501234138 | 8 | 327 | 1.6 | 3.2 | 0.00 | 0.00 | 0.00 | 70 | 1011.9 |
| 20260501233637 | 8 | 334 | 3.2 | 3.2 | 0.00 | 0.00 | 0.00 | 69 | 1011.9 |
| 20260501233136 | 8 | 332 | 1.6 | 1.6 | 0.00 | 0.00 | 0.00 | 70 | 1011.9 |
| 20260501232637 | 8 | 326 | 1.6 | 3.2 | 0.00 | 0.00 | 0.00 | 67 | 1011.9 |
| 20260501231636 | 9 | 334 | 1.6 | 1.6 | 0.00 | 0.00 | 0.00 | 64 | 1011.6 |
| 20260501231138 | 9 | 329 | 1.6 | 1.6 | 0.00 | 0.00 | 0.00 | 63 | 1011.6 |
| 20260501230636 | 9 | 338 | 1.6 | 1.6 | 0.00 | 0.00 | 0.00 | 59 | 1011.6 |
| 20260501230136 | 10 | 337 | 1.6 | 1.6 | 0.00 | 0.00 | 0.00 | 60 | 1011.6 |
| 20260501225635 | 10 | 338 | 1.6 | 1.6 | 0.00 | 0.00 | 0.00 | 59 | 1011.6 |
| 20260501225135 | 10 | 332 | 0.0 | 1.6 | 0.00 | 0.00 | 0.00 | 58 | 1011.6 |
| 20260501224634 | 11 | 346 | 1.6 | 3.2 | 0.00 | 0.00 | 0.00 | 56 | 1011.6 |
| 20260501224134 | 11 | 338 | 3.2 | 4.8 | 0.00 | 0.00 | 0.00 | 55 | 1011.6 |
| 20260501223634 | 11 | 0.0 | 0.0 | 0.00 | 0.00 | 0.00 | 54 | 1011.6 | |
| 20260501223132 | 11 | 329 | 1.6 | 3.2 | 0.00 | 0.00 | 0.00 | 50 | 1011.6 |
| 20260501222633 | 11 | 343 | 1.6 | 1.6 | 0.00 | 0.00 | 0.00 | 50 | 1011.6 |
| 20260501222132 | 11 | 359 | 1.6 | 1.6 | 0.00 | 0.00 | 0.00 | 47 | 1011.4 |
| 20260501221632 | 11 | 318 | 4.8 | 8.0 | 0.00 | 0.00 | 0.00 | 50 | 1011.6 |
| 20260501221131 | 11 | 335 | 1.6 | 3.2 | 0.00 | 0.00 | 0.00 | 50 | 1011.6 |
| 20260501220632 | 11 | 335 | 1.6 | 1.6 | 0.00 | 0.00 | 0.00 | 46 | 1011.6 |
| 20260501220131 | 11 | 335 | 4.8 | 9.7 | 0.00 | 0.00 | 0.00 | 44 | 1011.6 |
| 20260501215630 | 12 | 312 | 1.6 | 3.2 | 0.00 | 0.00 | 0.00 | 44 | 1011.6 |
| 20260501215130 | 12 | 334 | 6.4 | 9.7 | 0.00 | 0.00 | 0.00 | 42 | 1011.2 |
| 20260501214629 | 13 | 327 | 8.0 | 12.9 | 0.00 | 0.00 | 0.00 | 43 | 1011.6 |
| 20260501214130 | 13 | 309 | 3.2 | 8.0 | 0.00 | 0.00 | 0.00 | 42 | 1011.2 |
| 20260501213629 | 12 | 322 | 1.6 | 3.2 | 0.00 | 0.00 | 0.00 | 43 | 1011.6 |
| 20260501213128 | 12 | 344 | 3.2 | 3.2 | 0.00 | 0.00 | 0.00 | 42 | 1011.2 |
| 20260501212627 | 12 | 286 | 6.4 | 12.9 | 0.00 | 0.00 | 0.00 | 41 | 1011.2 |
| 20260501212129 | 12 | 315 | 3.2 | 8.0 | 0.00 | 0.00 | 0.00 | 46 | 1011.4 |
| 20260501211628 | 12 | 337 | 3.2 | 4.8 | 0.00 | 0.00 | 0.00 | 44 | 1011.2 |
| 20260501211127 | 12 | 288 | 6.4 | 8.0 | 0.00 | 0.00 | 0.00 | 43 | 1011.4 |
| 20260501210626 | 12 | 329 | 3.2 | 4.8 | 0.00 | 0.00 | 0.00 | 43 | 1011.2 |
| 20260501210131 | 12 | 311 | 9.7 | 12.9 | 0.00 | 0.00 | 0.00 | 43 | 1011.2 |
| 20260501205727 | 13 | 277 | 4.8 | 9.7 | 0.00 | 0.00 | 0.00 | 40 | 1011.6 |
| 20260501205126 | 13 | 297 | 6.4 | 9.7 | 0.00 | 0.00 | 0.00 | 40 | 1011.2 |
| 20260501204126 | 13 | 311 | 6.4 | 8.0 | 0.00 | 0.00 | 0.00 | 38 | 1011.2 |
| 20260501203625 | 13 | 351 | 9.7 | 14.5 | 0.00 | 0.00 | 0.00 | 40 | 1011.2 |
| 20260501203125 | 13 | 331 | 4.8 | 11.3 | 0.00 | 0.00 | 0.00 | 40 | 1010.9 |
| 20260501202125 | 12 | 286 | 8.0 | 11.3 | 0.00 | 0.00 | 0.00 | 42 | 1011.2 |
| 20260501201624 | 12 | 317 | 4.8 | 12.9 | 0.00 | 0.00 | 0.00 | 42 | 1011.2 |
| 20260501201123 | 13 | 303 | 9.7 | 16.1 | 0.00 | 0.00 | 0.00 | 40 | 1011.2 |
| 20260501200623 | 13 | 4 | 6.4 | 11.3 | 0.00 | 0.00 | 0.00 | 41 | 1011.0 |
| 20260501200122 | 13 | 335 | 4.8 | 9.7 | 0.00 | 0.00 | 0.00 | 42 | 1011.2 |
| 20260501195623 | 13 | 350 | 9.7 | 16.1 | 0.00 | 0.00 | 0.00 | 40 | 1011.2 |
| 20260501184617 | 12 | 294 | 8.0 | 12.9 | 0.00 | 0.00 | 0.00 | 45 | 1011.6 |
| 20260501184116 | 11 | 328 | 3.2 | 3.2 | 0.00 | 0.00 | 0.00 | 46 | 1011.7 |
| 20260501183616 | 11 | 330 | 1.6 | 3.2 | 0.00 | 0.00 | 0.00 | 49 | 1011.9 |
| 20260501183117 | 11 | 349 | 6.4 | 11.3 | 0.00 | 0.00 | 0.00 | 49 | 1011.9 |
| 20260501182647 | 11 | 333 | 8.0 | 11.3 | 0.00 | 0.00 | 0.00 | 49 | 1011.9 |
| 20260501182145 | 11 | 315 | 1.6 | 3.2 | 0.00 | 0.00 | 0.00 | 48 | 1011.9 |
| 20260501181645 | 12 | 354 | 4.8 | 4.8 | 0.00 | 0.00 | 0.00 | 48 | 1011.6 |
| 20260501181146 | 11 | 337 | 4.8 | 9.7 | 0.00 | 0.00 | 0.00 | 50 | 1011.9 |
| 20260501180144 | 12 | 338 | 6.4 | 11.3 | 0.00 | 0.00 | 0.00 | 47 | 1011.6 |
| 20260501175644 | 12 | 291 | 8.0 | 12.9 | 0.00 | 0.00 | 0.00 | 45 | 1011.7 |
| 20260501175144 | 12 | 350 | 8.0 | 16.1 | 0.00 | 0.00 | 0.00 | 48 | 1011.9 |
| 20260501174644 | 11 | 306 | 6.4 | 9.7 | 0.00 | 0.00 | 0.00 | 47 | 1011.6 |
| 20260501174243 | 12 | 294 | 11.3 | 24.1 | 0.00 | 0.00 | 0.00 | 44 | 1011.6 |
| 20260501173642 | 12 | 261 | 6.4 | 11.3 | 0.00 | 0.00 | 0.00 | 47 | 1011.6 |
| 20260501173141 | 11 | 324 | 3.2 | 4.8 | 0.00 | 0.00 | 0.00 | 46 | 1011.9 |
| 20260501172642 | 12 | 342 | 4.8 | 11.3 | 0.00 | 0.00 | 0.00 | 45 | 1011.6 |
| 20260501172141 | 12 | 304 | 9.7 | 14.5 | 0.00 | 0.00 | 0.00 | 47 | 1011.7 |
| 20260501171242 | 12 | 298 | 9.7 | 16.1 | 0.00 | 0.00 | 0.00 | 49 | 1011.6 |
| 20260501170642 | 12 | 352 | 9.7 | 17.7 | 0.00 | 0.00 | 0.00 | 50 | 1011.7 |
| 20260501170141 | 11 | 254 | 4.8 | 8.0 | 0.00 | 0.00 | 0.00 | 52 | 1011.7 |
| 20260501165640 | 11 | 349 | 8.0 | 12.9 | 0.00 | 0.00 | 0.00 | 55 | 1011.6 |
| 20260501165139 | 11 | 278 | 8.0 | 17.7 | 0.00 | 0.00 | 0.00 | 53 | 1011.6 |
| 20260501164640 | 10 | 318 | 1.6 | 1.6 | 0.00 | 0.00 | 0.00 | 56 | 1011.9 |
| 20260501164139 | 10 | 343 | 6.4 | 14.5 | 0.00 | 0.00 | 0.00 | 57 | 1011.9 |
| 20260501163638 | 10 | 312 | 8.0 | 12.9 | 0.00 | 0.00 | 0.00 | 56 | 1011.6 |
| 20260501163138 | 11 | 329 | 9.7 | 12.9 | 0.00 | 0.00 | 0.00 | 56 | 1011.9 |
| 20260501162641 | 10 | 335 | 9.7 | 12.9 | 0.00 | 0.00 | 0.00 | 57 | 1011.9 |
| 20260501162138 | 10 | 334 | 6.4 | 9.7 | 0.00 | 0.00 | 0.00 | 57 | 1011.9 |
| 20260501161637 | 11 | 308 | 4.8 | 4.8 | 0.00 | 0.00 | 0.00 | 56 | 1011.9 |
| 20260501161136 | 10 | 338 | 12.9 | 16.1 | 0.00 | 0.00 | 0.00 | 56 | 1011.9 |
| 20260501160639 | 10 | 3 | 8.0 | 11.3 | 0.00 | 0.00 | 0.00 | 56 | 1011.9 |
| 20260501160137 | 10 | 273 | 8.0 | 11.3 | 0.00 | 0.00 | 0.00 | 59 | 1012.3 |
| 20260501155636 | 11 | 303 | 11.3 | 17.7 | 0.00 | 0.00 | 0.00 | 57 | 1011.9 |
| 20260501155141 | 10 | 305 | 4.8 | 9.7 | 0.00 | 0.00 | 0.00 | 57 | 1012.3 |
| 20260501154634 | 10 | 8 | 9.7 | 12.9 | 0.00 | 0.00 | 0.00 | 59 | 1011.9 |
| 20260501154135 | 10 | 315 | 11.3 | 17.7 | 0.00 | 0.00 | 0.00 | 58 | 1012.1 |
| 20260501153635 | 10 | 329 | 16.1 | 20.9 | 0.00 | 0.00 | 0.00 | 58 | 1012.3 |
| 20260501153134 | 10 | 337 | 1.6 | 3.2 | 0.00 | 0.00 | 0.00 | 60 | 1012.3 |
| 20260501152635 | 9 | 1 | 8.0 | 11.3 | 0.00 | 0.00 | 0.00 | 62 | 1012.1 |
| 20260501151633 | 9 | 338 | 4.8 | 12.9 | 0.00 | 0.00 | 0.00 | 64 | 1012.3 |
| 20260501151133 | 9 | 287 | 9.7 | 12.9 | 0.00 | 0.00 | 0.00 | 66 | 1011.9 |
| 20260501150634 | 9 | 328 | 4.8 | 9.7 | 0.00 | 0.00 | 0.00 | 63 | 1012.3 |
| 20260501150133 | 10 | 328 | 1.6 | 3.2 | 0.00 | 0.00 | 0.00 | 62 | 1012.3 |
| 20260501145632 | 10 | 320 | 14.5 | 17.7 | 0.00 | 0.00 | 0.00 | 61 | 1012.1 |
| 20260501145134 | 10 | 315 | 6.4 | 12.9 | 0.00 | 0.00 | 0.00 | 61 | 1012.1 |
| 20260501144132 | 9 | 306 | 8.0 | 12.9 | 0.00 | 0.00 | 0.00 | 66 | 1012.3 |